Temp
2 2 3 5 5 6 7 8 9 9 10 10 11 11 12 12 12 11 11 12 12 12 12 11 10 11 12 12 11 10 11 11 10 10 9 9 9 9 8 8 8 7 7 6
2 2 6 4 5 5 6 7 8 9 10 10 11 11 11 11 11 11 11 12 12 11 12 11 11 10 11 11 11 10 11 11 10 9 9 9 9 8 8 8 8 7 7 7
2 6 4 4 5 6 6 7 7 8 8 9 8 9 10 10 10 10 10 11 11 11 11 11 10 10 10 11 11 10 11 11 10 9 9 9 8 8 8 8 8 7 7 6
2 4 4 4 5 6 6 7 7 8 8 8 8 8 9 10 10 10 10 11 11 11 11 11 11 11 10 10 10 10 11 11 10 9 9 8 8 8 8 8 7 7 7 6
3 3 4 4 5 5 6 7 7 8 8 8 8 8 8 9 10 11 11 12 12 12 12 11 11 10 10 10 10 10 10 10 10 9 9 8 8 8 8 7 7 7 7 6
3 4 4 4 5 5 6 6 6 7 7 8 8 8 8 9 10 10 11 11 12 12 11 11 11 10 10 10 10 10 11 10 10 9 9 8 8 8 7 7 7 5 5 4
1 3 4 4 5 6 6 6 7 6 7 7 7 8 8 9 10 10 10 11 11 11 11 11 11 10 9 9 10 10 10 10 10 9 9 8 8 7 7 7 5 4 3 4
0 3 3 4 5 6 6 6 7 5 6 7 7 8 8 8 8 10 10 10 10 11 11 10 10 10 9 9 10 11 11 10 10 9 9 8 7 7 6 4 3 4 3 3
1 2 3 4 4 5 5 6 6 6 7 7 7 8 8 9 9 9 9 10 10 10 10 9 9 9 8 9 10 10 10 10 9 9 8 8 6 5 5 5 4 3 2 2
-1 0 2 4 4 4 5 5 6 6 4 4 6 7 8 9 10 9 10 10 10 10 10 9 9 9 9 9 9 10 9 9 9 9 8 7 6 5 4 3 3 3 3 2
-1 -2 0 2 2 4 5 4 5 6 5 3 4 6 7 8 10 10 10 10 9 9 9 9 8 8 8 9 9 9 8 8 8 8 8 6 6 5 4 3 3 2 2 2
-4 -3 -2 -1 2 2 3 5 5 5 5 5 5 4 7 7 9 9 9 10 9 9 8 8 8 8 8 7 7 7 7 8 8 8 6 6 5 4 3 3 2 2 2 1
-7 -6 -5 -1 -1 0 1 1 3 4 5 3 2 3 8 7 8 8 8 8 8 8 8 8 8 8 7 7 8 7 6 7 8 7 6 5 4 3 2 2 2 1 1 1
-9 -8 -8 -5 -4 -5 -2 1 2 2 1 1 3 4 5 6 7 8 7 7 7 7 8 8 8 8 7 7 7 7 6 7 7 7 6 4 3 2 2 1 1 1 0 0
-8 -8 -8 -7 -7 -6 -5 -2 -0 3 2 -0 0 2 4 7 6 6 6 6 6 7 7 7 7 7 7 7 7 6 6 6 6 6 5 4 2 1 1 1 1 0 0 -0
-8 -8 -7 -7 -7 -6 -6 -5 -3 -0 1 3 3 2 4 5 6 5 5 5 6 6 7 6 6 6 6 7 7 6 6 6 6 6 5 3 1 1 1 0 0 -0 -0 -2
-8 -8 -8 -7 -6 -7 -6 -3 -1 -0 1 2 4 4 4 4 5 5 5 5 5 6 6 6 6 6 6 6 6 6 6 6 5 5 5 3 1 0 0 -0 -1 -1 -2 -2
-8 -8 -8 -8 -7 -6 -5 -3 -2 -1 1 2 3 5 5 5 5 6 6 6 5 6 6 5 5 5 5 5 5 5 5 5 5 4 4 2 0 -0 -1 -1 -1 -3 -3 -2
-7 -7 -8 -8 -6 -6 -6 -3 -3 -1 0 2 2 0 3 3 4 5 5 5 5 5 5 5 5 4 5 5 5 5 5 4 4 3 2 0 -0 -1 -1 -2 -3 -3 -3 -2
-6 -7 -8 -7 -7 -6 -4 -3 -1 -2 -2 0 1 2 3 3 3 4 5 5 5 5 5 4 3 2 3 3 2 3 3 3 3 2 1 -1 -1 -2 -2 -3 -4 -5 -3 -2
-7 -7 -7 -8 -7 -6 -4 -3 -2 -2 -2 -1 1 2 2 3 3 4 4 4 4 4 4 4 3 3 2 2 0 1 2 1 2 2 -0 -2 -3 -2 -4 -4 -5 -4 -3 -3
-7 -6 -7 -7 -7 -6 -3 -3 -2 -1 -0 -0 0 1 1 2 2 2 3 3 3 3 3 3 2 0 1 2 0 0 -0 0 0 -3 -3 -4 -3 -5 -5 -6 -5 -3 -3 -3
-6 -6 -6 -6 -6 -5 -2 -3 -2 -1 1 -0 0 -0 -1 0 1 2 2 3 3 2 2 2 2 1 -0 0 1 -1 -0 -1 -3 -5 -6 -5 -6 -4 -6 -6 -4 -4 -4 -4
-6 -6 -6 -6 -6 -5 -5 -4 -3 -2 -1 -1 -0 -1 -1 -0 1 1 2 2 2 2 0 -1 -0 -1 -1 -0 -1 -2 -2 -3 -3 -4 -6 -5 -4 -6 -7 -5 -4 -4 -4 -4
-7 -7 -7 -6 -6 -5 -5 -4 -3 -2 -2 -2 -1 -1 -0 0 0 2 2 1 1 1 2 -1 -1 -2 -2 -2 -2 -2 -4 -5 -6 -6 -5 -5 -7 -7 -5 -5 -5 -5 -5 -5
-7 -6 -6 -6 -5 -5 -4 -4 -4 -3 -2 -2 -2 -2 -1 -1 -1 -0 1 0 0 0 1 -1 -2 -2 -2 -3 -3 -5 -6 -7 -6 -6 -6 -8 -7 -6 -5 -5 -5 -5 -5 -5
Height
3067 3073 3065 3061 3073 3078 3080 3081 3081 3082 3086 3088 3086 3086 3089 3093 3095 3096 3097 3099 3101 3102 3106 3106 3105 3106 3110 3111 3113 3107 3110 3111 3113 3115 3118 3118 3120 3121 3122 3123 3124 3125 3126 3126
3064 3054 3045 3069 3069 3074 3075 3075 3074 3075 3079 3081 3080 3080 3084 3087 3088 3089 3091 3094 3096 3097 3100 3101 3097 3101 3103 3105 3106 3105 3104 3106 3108 3110 3113 3114 3115 3116 3117 3117 3119 3120 3121 3122
3043 3031 3056 3057 3062 3066 3066 3067 3066 3068 3076 3074 3075 3073 3075 3077 3080 3082 3084 3085 3087 3090 3093 3095 3089 3095 3097 3098 3100 3100 3098 3102 3103 3105 3107 3109 3110 3111 3110 3112 3112 3113 3115 3115
3037 3036 3045 3050 3051 3058 3056 3057 3064 3066 3069 3067 3072 3067 3066 3068 3070 3073 3075 3077 3079 3081 3084 3086 3084 3085 3089 3093 3093 3090 3092 3095 3097 3099 3100 3102 3104 3105 3105 3106 3106 3108 3108 3109
3025 3028 3035 3038 3037 3049 3042 3059 3058 3059 3061 3061 3062 3064 3038 3061 3061 3065 3067 3069 3068 3070 3074 3077 3082 3077 3080 3083 3085 3084 3085 3088 3089 3091 3093 3095 3096 3097 3098 3098 3099 3100 3100 3101
3019 3021 3026 3028 3032 3038 3046 3051 3050 3049 3051 3046 3047 3052 3031 3051 3054 3058 3060 3061 3061 3064 3065 3067 3072 3069 3071 3073 3073 3075 3076 3080 3081 3083 3084 3087 3088 3089 3090 3091 3092 3092 3092 3093
3011 3008 3015 3025 3027 3030 3036 3037 3035 3036 3036 3031 3034 3042 3038 3043 3045 3048 3052 3053 3053 3057 3057 3057 3061 3062 3060 3062 3061 3065 3068 3070 3074 3075 3075 3078 3079 3080 3083 3082 3084 3083 3086 3086
3002 2998 3002 3004 3006 3014 3019 3025 3026 3027 3025 3024 3028 3032 3032 3034 3039 3038 3040 3042 3045 3047 3049 3050 3053 3053 3050 3054 3055 3056 3060 3062 3065 3067 3067 3069 3069 3071 3073 3073 3075 3078 3079 3080
2992 2987 2999 3003 3006 3012 3009 3010 3019 3020 3020 3019 3018 3020 3024 3020 3025 3028 3030 3033 3039 3039 3042 3042 3044 3045 3043 3044 3046 3048 3051 3054 3057 3058 3060 3061 3061 3062 3064 3065 3069 3070 3072 3071
2984 2986 2984 2992 2999 2998 2999 3008 3008 3006 3009 3009 3009 3009 3014 3011 3013 3019 3022 3025 3030 3031 3035 3036 3035 3036 3035 3035 3037 3040 3041 3045 3048 3050 3052 3053 3054 3055 3057 3059 3060 3061 3064 3064
2979 2979 2965 2985 2979 2985 2989 2991 2995 2996 2997 3001 3002 2996 3004 3004 3005 3011 3015 3019 3022 3023 3024 3027 3028 3027 3026 3027 3029 3034 3034 3036 3040 3043 3044 3045 3046 3048 3051 3052 3053 3055 3056 3057
2965 2964 2961 2962 2966 2976 2977 2980 2982 2982 2986 2984 2985 2987 2995 2999 2995 3001 3006 3007 3012 3013 3016 3018 3019 3020 3018 3019 3021 3024 3026 3027 3031 3035 3036 3038 3040 3042 3044 3046 3046 3048 3049 3050
2962 2962 2960 2952 2964 2961 2961 2965 2966 2966 2968 2968 2975 2977 2979 2984 2988 2993 2997 2997 2998 3001 3005 3009 3007 3009 3008 3011 3014 3016 3018 3020 3024 3027 3029 3031 3034 3035 3037 3039 3040 3041 3041 3039
2965 2961 2962 2953 2954 2958 2955 2953 2958 2961 2959 2959 2956 2965 2968 2971 2976 2983 2987 2991 2993 2994 2996 2999 2995 2999 3000 3003 3005 3007 3012 3014 3016 3019 3021 3023 3026 3028 3030 3032 3033 3033 3031 3031
2959 2956 2958 2953 2953 2951 2947 2944 2944 2946 2950 2953 2954 2962 2964 2958 2966 2973 2980 2982 2986 2989 2990 2991 2988 2990 2993 2996 2997 2999 3003 3005 3008 3012 3014 3015 3017 3020 3022 3024 3023 3021 3023 3023
2951 2945 2944 2938 2946 2945 2939 2936 2934 2934 2938 2942 2944 2946 2956 2952 2957 2965 2964 2973 2977 2979 2980 2981 2980 2982 2985 2987 2989 2992 2994 2995 2998 3002 3005 3008 3010 3012 3014 3014 3012 3014 3015 3014
2943 2945 2943 2933 2937 2935 2934 2929 2927 2926 2927 2933 2933 2938 2942 2944 2947 2951 2956 2963 2965 2969 2971 2970 2973 2975 2977 2978 2980 2981 2983 2985 2988 2993 2997 2998 3000 3004 3005 3004 3004 3006 3006 3006
2934 2937 2937 2934 2936 2927 2923 2927 2925 2921 2917 2922 2925 2930 2933 2937 2939 2942 2950 2951 2957 2959 2961 2963 2965 2966 2967 2969 2969 2970 2972 2975 2981 2985 2986 2989 2991 2994 2995 2994 2996 2996 2999 2997
2930 2929 2928 2926 2918 2915 2917 2916 2920 2919 2912 2916 2920 2922 2923 2928 2928 2923 2934 2940 2944 2949 2952 2953 2953 2956 2957 2958 2960 2961 2962 2965 2970 2975 2976 2979 2982 2984 2985 2986 2984 2989 2991 2989
2921 2919 2920 2919 2914 2906 2905 2910 2913 2913 2906 2903 2907 2911 2915 2920 2917 2915 2922 2929 2931 2935 2938 2935 2940 2945 2946 2946 2947 2950 2952 2959 2962 2963 2966 2971 2972 2975 2973 2973 2980 2983 2983 2982
2913 2912 2907 2906 2901 2895 2894 2900 2906 2906 2899 2896 2895 2900 2905 2901 2902 2905 2909 2915 2919 2922 2924 2926 2926 2931 2933 2935 2939 2940 2944 2948 2950 2956 2958 2960 2962 2962 2963 2970 2974 2976 2976 2976
2899 2900 2896 2893 2892 2887 2886 2889 2892 2890 2889 2886 2888 2888 2883 2885 2892 2900 2901 2900 2905 2911 2911 2913 2915 2916 2920 2922 2928 2929 2933 2938 2943 2946 2946 2949 2951 2954 2959 2965 2967 2969 2970 2970
2888 2886 2885 2885 2875 2880 2877 2874 2879 2879 2877 2880 2881 2876 2881 2884 2886 2885 2887 2890 2893 2897 2898 2900 2899 2902 2905 2909 2908 2920 2924 2926 2928 2933 2934 2938 2945 2950 2955 2959 2962 2963 2964 2963
2875 2876 2872 2874 2865 2868 2867 2870 2870 2868 2870 2873 2872 2872 2876 2877 2877 2877 2879 2882 2886 2888 2889 2890 2890 2893 2894 2897 2904 2909 2914 2915 2918 2922 2928 2935 2940 2945 2950 2954 2956 2957 2957 2957
2868 2866 2862 2859 2857 2857 2855 2862 2862 2861 2859 2861 2864 2867 2867 2867 2870 2873 2874 2877 2880 2880 2879 2881 2884 2885 2887 2889 2891 2895 2902 2909 2911 2917 2925 2931 2934 2941 2946 2948 2950 2951 2951 2952
2860 2858 2857 2849 2851 2846 2850 2853 2852 2851 2857 2857 2853 2851 2857 2860 2863 2866 2867 2869 2873 2874 2874 2874 2875 2876 2877 2881 2886 2892 2901 2908 2911 2917 2920 2925 2933 2937 2940 2942 2944 2945 2946 2946
Wind_Speed
27 23 39 49 40 39 33 30 32 32 29 28 35 32 27 31 31 30 32 24 28 33 28 28 30 32 28 28 27 34 29 24 27 26 25 21 18 16 19 21 21 22 23 23
30 43 56 36 34 37 37 38 37 34 30 29 27 33 31 29 30 32 31 30 32 29 29 32 32 34 30 29 29 31 31 25 28 30 26 24 23 22 23 24 26 27 27 27
46 60 40 37 38 39 41 41 42 39 30 30 29 34 34 34 32 33 35 35 31 30 32 29 36 36 32 31 30 32 33 27 29 33 31 29 30 29 29 28 29 31 30 32
47 46 42 42 43 39 45 46 40 35 33 31 29 26 36 38 37 37 37 33 33 41 37 35 37 41 38 34 33 37 36 32 30 34 35 35 34 34 33 33 35 35 36 38
45 48 44 46 50 44 51 37 38 39 40 37 32 28 53 37 37 35 33 33 39 37 33 42 39 37 40 39 39 40 40 37 35 37 38 38 39 39 39 41 40 40 41 40
40 41 45 51 48 46 42 36 38 41 38 26 41 41 52 37 39 38 31 31 30 23 28 37 35 42 40 42 46 45 42 39 38 38 40 41 42 44 44 43 43 40 39 36
45 47 42 38 40 43 44 44 26 23 24 21 44 39 39 22 24 34 39 28 37 32 32 36 38 42 46 52 50 48 47 43 39 38 39 39 41 43 43 42 37 42 35 38
42 40 45 44 47 46 42 48 31 26 17 21 43 31 41 47 47 39 38 30 19 29 25 33 37 38 48 49 41 44 40 39 41 37 37 36 38 38 37 37 38 39 37 40
37 49 44 46 43 42 43 44 47 43 38 19 31 37 43 45 44 37 37 33 35 30 28 28 35 37 42 43 41 41 40 40 39 37 35 34 32 33 36 35 35 35 39 34
44 45 44 38 40 48 49 43 36 39 24 26 32 37 26 32 35 38 28 36 31 32 33 32 34 38 39 41 38 37 39 40 36 36 34 34 33 33 32 32 34 35 36 35
47 44 57 44 47 45 47 53 53 39 33 18 20 31 47 42 41 30 27 30 26 25 26 33 32 42 45 46 43 38 38 39 37 35 36 33 33 33 32 35 37 36 36 37
24 20 45 43 50 41 39 49 55 45 29 34 39 31 33 42 52 46 43 46 45 34 25 31 37 42 47 47 47 42 41 41 39 35 35 34 34 34 35 37 37 37 38 38
16 7 9 22 27 49 53 50 46 41 54 40 20 27 45 56 48 25 26 24 24 26 23 30 41 44 49 48 46 43 42 41 38 36 36 35 36 37 38 38 39 39 39 39
29 20 17 16 21 20 26 44 48 48 46 42 47 45 57 56 52 48 37 33 28 26 23 27 45 43 47 46 40 39 40 39 39 38 36 36 36 38 39 40 40 40 41 39
26 25 26 27 27 28 30 34 40 44 52 47 32 45 62 55 54 46 38 40 35 32 28 32 36 42 47 42 42 40 41 43 41 39 36 37 38 38 40 41 41 44 42 43
20 26 13 30 27 24 30 30 36 44 40 52 46 51 54 59 55 48 50 40 35 32 32 33 36 40 44 45 44 41 44 45 43 37 33 38 38 39 41 41 45 43 42 29
21 21 18 28 24 24 19 30 37 49 52 44 52 50 51 52 49 50 45 39 39 32 36 39 40 43 42 45 46 47 45 45 42 35 35 40 39 41 42 43 44 38 33 31
32 30 27 26 23 12 24 18 21 28 48 53 48 47 44 49 54 49 47 43 41 39 34 36 44 45 45 39 37 42 43 41 37 32 39 40 41 42 43 45 41 42 29 30
36 39 30 22 27 32 43 33 25 25 31 41 49 40 43 52 52 61 55 41 44 44 41 46 45 43 48 51 44 42 44 43 36 35 40 40 42 43 45 41 48 26 28 28
17 33 46 22 22 18 43 49 27 33 39 33 34 46 43 41 45 52 53 44 31 30 36 44 47 42 46 46 47 46 47 40 38 37 37 41 45 44 48 54 26 23 26 25
31 35 38 43 31 26 41 39 35 32 39 23 25 33 45 58 60 59 56 54 51 49 39 43 46 50 47 42 41 45 46 44 45 40 42 46 47 50 51 30 22 23 23 23
38 34 27 36 29 23 35 30 29 35 33 38 30 34 23 41 56 54 52 50 48 39 45 47 44 44 52 57 57 56 57 53 47 41 46 50 50 44 29 18 19 23 21 21
38 40 38 29 19 37 33 27 30 30 36 32 31 21 35 21 18 31 40 43 44 37 42 44 46 47 52 52 53 52 55 54 47 50 51 52 41 32 19 17 22 21 20 18
36 35 40 39 49 44 39 36 33 16 16 26 33 34 25 24 19 19 20 21 18 29 36 36 38 46 53 52 45 48 51 50 48 46 46 37 38 19 14 22 21 20 17 16
36 31 28 32 40 40 26 30 31 33 31 35 28 38 48 32 27 24 23 22 24 23 27 34 36 44 49 50 49 51 51 45 44 41 33 28 15 14 20 21 19 18 16 16
43 40 38 40 22 19 30 26 26 24 26 24 29 35 37 30 30 32 27 27 29 22 25 28 31 35 34 37 42 42 38 37 34 33 25 13 14 20 20 19 19 18 16 16
Wind_Direction
224 219 223 229 228 234 242 248 247 249 249 245 250 258 254 248 250 249 251 254 248 245 239 242 245 242 239 244 243 246 255 258 241 239 243 251 257 257 255 254 256 258 261 264
216 225 238 232 235 237 241 247 249 253 247 252 259 254 253 251 251 250 251 254 249 246 240 236 241 249 238 243 245 243 252 258 241 240 243 247 253 257 259 257 257 260 262 266
218 236 232 230 235 236 238 240 243 246 251 253 261 265 255 251 252 252 250 248 247 250 233 239 245 256 250 244 244 243 251 256 242 241 244 247 249 253 258 262 261 262 265 265
226 242 233 233 234 232 240 237 246 249 250 243 244 265 256 253 255 256 261 262 249 236 241 243 247 256 260 249 247 247 252 254 247 241 245 248 255 258 262 263 264 264 263 263
231 235 233 232 233 233 241 242 247 248 249 254 247 249 256 250 255 254 255 262 263 263 248 237 236 257 257 255 251 249 252 253 251 245 246 249 253 256 258 257 260 261 264 264
234 238 234 234 237 237 243 244 248 252 255 243 241 234 256 249 253 257 259 261 257 255 244 240 240 248 254 255 254 248 252 252 251 250 248 249 253 254 256 261 260 260 264 253
234 236 235 233 238 237 234 238 239 231 231 239 243 239 243 255 249 258 249 261 257 246 257 241 234 238 245 248 253 252 248 250 250 251 252 254 255 257 259 263 250 260 259 257
227 241 229 221 226 231 230 231 234 239 231 237 246 247 245 255 256 245 239 245 265 241 257 239 243 245 247 248 253 249 247 247 248 252 256 255 253 256 256 252 261 251 261 261
232 237 240 235 234 233 239 233 232 244 250 244 244 245 243 254 254 257 241 257 251 245 242 245 250 247 252 247 251 253 255 249 245 250 254 260 260 253 252 252 247 258 257 259
234 251 241 242 238 237 239 236 238 229 233 238 242 247 247 246 247 243 246 235 250 254 245 247 255 261 262 257 251 257 251 242 241 249 255 257 258 256 256 252 254 250 257 260
243 245 251 244 246 237 230 234 241 241 224 235 241 241 236 234 238 242 241 240 251 244 257 242 251 255 259 261 261 261 249 245 243 250 253 253 256 256 253 248 249 252 257 262
243 250 240 242 236 240 242 243 229 231 231 230 232 239 239 237 245 254 254 250 257 262 255 248 245 249 256 260 262 254 244 244 246 251 252 255 258 254 250 250 252 256 261 266
316 297 300 248 242 245 252 247 246 245 229 213 211 229 239 231 237 243 229 218 228 233 240 254 244 251 256 258 265 256 244 244 252 251 253 254 251 249 248 250 254 258 263 264
296 298 279 287 299 289 269 254 248 244 250 232 225 233 238 241 246 237 227 251 267 281 234 252 241 247 256 260 259 253 246 247 253 252 251 251 249 248 249 252 256 259 260 266
255 268 273 278 283 291 288 277 261 248 243 239 243 235 244 245 247 248 245 250 260 259 251 254 248 245 252 260 257 250 242 246 251 250 251 252 249 249 250 253 256 258 265 276
278 271 274 281 287 295 295 281 263 256 257 241 239 234 240 249 253 254 257 258 258 257 246 240 240 243 249 254 258 264 249 247 249 248 258 252 248 250 251 253 256 262 272 284
273 269 284 278 296 300 295 265 263 256 249 255 240 246 254 245 251 259 262 261 254 250 258 238 240 248 253 260 264 261 249 248 245 249 262 250 247 248 251 253 259 267 281 289
266 267 257 267 290 251 275 267 275 275 254 246 250 250 240 252 255 257 255 255 256 249 256 252 247 254 257 254 252 246 246 247 246 257 253 249 243 247 251 255 262 267 283 288
254 251 256 246 259 267 273 261 280 282 278 253 250 256 249 242 251 250 249 257 256 255 254 252 253 244 249 249 259 252 245 240 248 251 245 240 242 245 250 256 264 275 282 286
252 246 230 228 232 242 265 268 262 287 294 249 239 250 254 254 257 253 247 252 254 250 250 251 245 242 248 245 244 243 242 247 249 248 250 239 238 241 245 256 277 272 276 283
264 254 242 233 237 253 260 267 275 266 272 270 240 243 255 253 245 244 245 251 256 262 258 245 243 246 237 239 244 245 241 245 246 252 243 232 234 239 248 266 262 269 275 279
259 261 255 227 237 236 253 268 237 259 268 260 267 233 273 248 253 252 250 255 256 250 252 242 237 240 241 243 245 248 247 246 242 236 228 227 234 248 251 257 263 266 269 275
258 253 258 242 233 238 264 246 241 250 262 268 259 253 251 248 236 241 245 248 251 242 240 240 240 238 234 235 241 247 248 246 237 230 229 230 244 248 241 249 257 261 265 272
270 265 263 262 260 257 252 248 244 247 259 282 281 262 231 235 205 215 228 240 244 243 239 234 224 226 229 234 235 246 243 235 241 234 230 242 253 233 238 252 255 254 262 262
268 280 265 277 258 262 244 257 262 262 274 272 269 264 255 238 232 221 223 234 235 245 271 256 241 232 229 232 232 234 232 231 227 228 240 248 203 228 245 251 249 252 259 258
276 274 277 280 268 257 248 246 253 260 259 291 299 276 227 228 230 230 229 244 253 254 255 263 263 254 248 246 235 224 210 220 233 239 220 189 220 238 247 251 249 252 258 256